星链-5628 (STARLINK-5628 )

导读 | 豆包AI

STARLINK-5628是美国太空探索技术公司SpaceX于2023年2月2日发射的星链(Starlink)卫星,属于全球低轨卫星互联网星座组网计划的一员。星链旨在为全球偏远地区提供高速低延迟宽带互联网接入服务,这颗卫星加入后进一步扩大了星链星座规模,助力实现全球无缝网络覆盖目标,目前星链已在超60个国家提供服务。

Basic Information
目录编号:
55466
目录名称:
STARLINK-5628
国际标识:
2023-015T
轨道中心:
EARTH
卫星名称:
星链-5628
卫星全名:
星链-5628 (STARLINK-5628 )
卫星状态:
在轨 (已飞行1183 天)
发射日期:
2023-02-02 UTC
国别 :
美国 (US)
星等 :
--
Orbit Information
数据来源 国际轨道数据 AOE轨道数据
星历时间 2026-04-30T12:03:00+0800
9小时前
查看轨道信息
2026-04-29T17:00:00+0800
1天前
查看轨道信息
半长轴 6861.201km 6861.214km
偏心率 0.000151 0.0001654
轨道倾角 43.007° 43.004°
近地点辐角 265.634° 270.625°
升交点赤经 38.113° 42.598°
平近点角 94.434° 39.301°
近地点 482.027km 481.942km
远地点 484.101km 484.212km
周期 94.267分钟 94.267分钟
每日圈数 15.275752 15.275707
Detailed Information
固有亮度:
5
最大亮度:
2.5
卫星平台:
Starlink v1.5
覆盖范围:
全球
运营商:
太空探索技术公司
运营商所在国:
美国
制造商(研发单位):
太空探索技术公司
制造商所在国:
美国
使用方式:
暂无
Satellite Introduction
星链(Starlink)计划是由太空探索技术公司(SpaceX)提出的一个巨型低轨卫星互联网星座项目,计划在2019年至2024年间在太空搭建由约1.2万颗卫星组成的“星链”网络,其中1584颗将部署在地球上空550千米处的近地轨道,并从2020年开始工作。该卫星仍在工作。
2D Orbit Map
3D Orbit Map
Orbit Altitude Analysis Chart
Orbit Inclination Analysis Chart
Orbit Comprehensive Analysis Chart
View Comprehensive Chart